Location: Unspecified
(0.0000°N, 0.0000°E)
Time: 06:25:51
(UTC+02:00)

BREEZE-M DEB (TANK) - Visible Passes

Search period start: 02 April 2015 00:00
Search period end: 12 April 2015 00:00
Orbit: 331 x 16385 km, 49.4° (Epoch: 01 April)

Date Brightness Start Highest point End Pass type
(mag) Time Alt. Az. Time Alt. Az. Time Alt. Az.
02 Apr 7.5 01:37:27 10° NW 01:50:00 15° N 02:26:38 10° NNE visible
02 Apr 8.3 07:17:42 10° NNW 10:00:05 88° SW 10:43:47 10° SSE visible
02 Apr 3.5 21:07:16 10° S 21:10:17 35° ESE 21:18:14 10° NE visible
03 Apr 7.9 02:28:52 10° NNW 02:51:02 16° N 05:41:14 10° E visible
03 Apr 3.5 21:51:39 10° SW 21:55:10 73° NW 22:07:26 10° NE visible
04 Apr 8.2 03:19:38 10° NNW 04:07:58 22° NNE 06:49:12 10° ESE visible
04 Apr 5.3 22:37:07 10° W 22:41:40 34° NNW 22:56:13 10° NNE visible
05 Apr 8.5 04:09:23 10° NNW 05:43:53 37° NE 07:43:26 10° ESE visible
05 Apr 6.5 23:23:44 10° WNW 23:29:48 22° NNW 23:45:23 10° NNE visible
06 Apr 8.8 04:58:45 10° NNW 07:09:48 55° NE 08:33:09 10° SE visible
07 Apr 7.1 00:12:01 10° NW 00:19:51 16° NNW 00:36:38 10° NNE visible
07 Apr 8.8 05:48:16 10° NNW 08:19:07 73° NE 09:20:40 10° SE visible
08 Apr 7.6 01:02:28 10° NNW 01:13:12 14° N 01:39:06 10° NNE visible
08 Apr 8.4 06:38:30 10° NNW 09:18:40 89° SW 10:06:54 10° SSE visible
08 Apr 3.3 20:30:53 10° S 20:33:42 35° ESE 20:40:42 10° NE visible
09 Apr 8.0 01:53:39 10° NNW 02:13:21 15° N 05:00:58 10° E visible
09 Apr 8.1 07:30:04 10° NNW 10:12:39 70° WSW 10:52:13 10° SSE visible
09 Apr 3.5 21:15:14 10° SW 21:18:32 66° NW 21:29:13 10° NE visible
10 Apr 8.3 02:43:24 10° NNW 03:27:29 22° NNE 06:10:55 10° ESE visible
10 Apr 5.4 22:00:43 10° W 22:04:56 30° NNW 22:17:11 10° NNE visible
11 Apr 8.6 03:32:08 10° NNW 04:58:37 36° NE 07:05:33 10° ESE visible
11 Apr 6.7 22:47:26 10° WNW 22:52:55 19° NNW 23:05:12 10° NNE visible
